Location: Quaker Farms
(41.4276°N, 73.1557°W)
Time: 01:44:54
(UTC+00:00)

Altair - Pass Details

Date: 15 June 2021
Orbit: 1501 x 1682 km, 47.2° (Epoch: 23 July)

Event Time Altitude Azimuth Distance (km) Brightness Sun altitude
Rises 19:14:15 0° 235° (SW) 4,685 10.6 55.5°
Reaches altitude 10° 19:17:15 10° 235° (SW) 3,725 10.3 55.0°
Maximum altitude 19:26:43 81° 150° (SSE) 1,611 8.6 53.3°
Drops below altitude 10° 19:36:37 10° 65° (ENE) 3,880 9.4 51.5°
Sets 19:39:48 0° 64° (ENE) 4,888 9.8 51.0°
